Location: Kaseke
(18.0171°S, 31.0526°E)
Time: 12:47:12
(UTC+00:00)

SJ 16-02 - Pass Details

Date: 14 July 2020
Orbit: 606 x 617 km, 75.0° (Epoch: 08 August)

Event Time Altitude Azimuth Distance (km) Brightness Sun altitude
Exits shadow 03:18:47 - 187° (S) 2,646 4.4 -16.2°
Reaches altitude 10° 03:20:27 10° 184° (S) 1,980 3.7 -15.8°
Maximum altitude 03:24:49 61° 104° (ESE) 701 1.9 -14.8°
Drops below altitude 10° 03:29:10 10° 23° (NNE) 1,965 4.5 -13.8°
Sets 03:31:24 0° 19° (NNE) 2,864 5.4 -13.3°
